Weather History for Alice, TX

Change the Weather History Date:

Friday, April 5, 2013

  Actual Average Record
Temperature  
Mean Temperature 62 °F -  
Max Temperature 79 °F 79 °F 98 °F (2012)
Min Temperature 45 °F 58 °F 44 °F (2011)
Degree Days  
Heating Degree Days 4    
Growing Degree Days 12 (Base 50)    
Moisture  
Dew Point 43 °F    
Average Humidity 57    
Maximum Humidity 81    
Minimum Humidity 29    
Precipitation  
Precipitation 0.00 in - - ()
Sea Level Pressure  
Sea Level Pressure 30.17 in    
Wind  
Wind Speed 7 mph (East)    
Max Wind Speed 17 mph    
Max Gust Speed -    
Visibility 10 miles    
Events      
Averages and records for this station are not official NWS values.
T = Trace of Precipitation, MM = Missing Value Source: NWS Daily Summary

Daily Weather History Graph

Daily Weather History Graph

Search for Another Location

Airport:

Trip Planner

Search our weather history database for the weather conditions in past years. The results will help you decide how hot, cold, wet, or windy it might be!

Date:

Astronomy

Apr. 05, 2013 Rise Set
Actual Time 7:17 AM CDT 7:52 PM CDT
Civil Twilight 6:54 AM CDT 8:15 PM CDT
Nautical Twilight 6:26 AM CDT 8:43 PM CDT
Astronomical Twilight 5:58 AM CDT 9:11 PM CDT
Moon 4:01 AM CDT (4/5) 3:39 PM CDT (4/5)
Length of Visible Light 13h 21m
Length of Day
12h 34m
Waning Crescent, 23% of the Moon is Illuminated
Apr 5
Waning Crescent
Apr 10
New
Apr 18
First Quarter
Apr 25
Full
May 2
Last Quarter

Hourly Weather History & Observations

Time (CDT) Temp. Windchill Dew Point Humidity Pressure Visibility Wind Dir Wind Speed Gust Speed Precip Events Conditions
12:53 AM 55.0 °F - 42.1 °F 62% 30.19 in 10.0 mi ENE 10.4 mph - N/A   Clear
1:53 AM 52.0 °F - 41.0 °F 66% 30.21 in 10.0 mi East 3.5 mph - N/A   Clear
2:53 AM 50.0 °F - 39.9 °F 68% 30.21 in 10.0 mi Calm Calm - N/A   Clear
3:53 AM 48.0 °F - 39.0 °F 71% 30.20 in 10.0 mi NE 3.5 mph - N/A   Clear
4:53 AM 48.0 °F - 39.0 °F 71% 30.20 in 10.0 mi NE 5.8 mph - N/A   Clear
5:53 AM 45.0 °F 41.2 °F 37.9 °F 76% 30.22 in 10.0 mi NNE 6.9 mph - N/A   Clear
6:53 AM 46.0 °F 43.1 °F 39.0 °F 76% 30.23 in 10.0 mi NNE 5.8 mph - N/A   Clear
7:53 AM 46.9 °F - 39.9 °F 77% 30.24 in 10.0 mi NNE 6.9 mph - N/A   Clear
8:53 AM 52.0 °F - 41.0 °F 66% 30.27 in 10.0 mi NE 9.2 mph - N/A   Clear
9:53 AM 55.9 °F - 41.0 °F 57% 30.28 in 10.0 mi ENE 4.6 mph - N/A   Clear
10:53 AM 60.1 °F - 41.0 °F 49% 30.28 in 10.0 mi ENE 5.8 mph - N/A   Clear
11:53 AM 63.0 °F - 41.0 °F 45% 30.26 in 10.0 mi SSE 4.6 mph - N/A   Clear
12:53 PM 68.0 °F - 41.0 °F 37% 30.22 in 10.0 mi SE 6.9 mph - N/A   Clear
1:53 PM 71.1 °F - 41.0 °F 34% 30.18 in 10.0 mi SE 3.5 mph - N/A   Clear
2:53 PM 73.9 °F - 42.1 °F 32% 30.14 in 10.0 mi Calm Calm - N/A   Clear
3:53 PM 75.9 °F - 42.1 °F 30% 30.10 in 10.0 mi South 4.6 mph - N/A   Clear
4:53 PM 78.1 °F - 43.0 °F 29% 30.07 in 10.0 mi SE 8.1 mph - N/A   Clear
5:53 PM 73.9 °F - 46.9 °F 38% 30.06 in 10.0 mi SE 17.3 mph - N/A   Clear
6:53 PM 69.1 °F - 46.9 °F 45% 30.06 in 10.0 mi ESE 15.0 mph - N/A   Clear
7:53 PM 64.9 °F - 46.9 °F 52% 30.07 in 10.0 mi ESE 17.3 mph - N/A   Clear
8:53 PM 62.1 °F - 48.9 °F 62% 30.09 in 10.0 mi SE 12.7 mph - N/A   Clear
9:53 PM 60.1 °F - 51.1 °F 72% 30.09 in 10.0 mi SE 10.4 mph - N/A   Clear
10:53 PM 59.0 °F - 52.0 °F 78% 30.11 in 10.0 mi SE 8.1 mph - N/A   Clear
11:53 PM 57.9 °F - 52.0 °F 81% 30.09 in 10.0 mi SE 5.8 mph - N/A   Clear